Year,Month,Day,Hour,Minute,Value (Times are PST for temperature in C)
2017,06,24,00,00,13.80
2017,06,24,00,01,13.80
2017,06,24,00,02,13.80
2017,06,24,00,03,13.80
2017,06,24,00,04,13.70
2017,06,24,00,05,13.70
2017,06,24,00,06,13.70
2017,06,24,00,07,13.60
2017,06,24,00,08,13.60
2017,06,24,00,09,13.60
2017,06,24,00,10,13.60
2017,06,24,00,11,13.50
2017,06,24,00,12,13.40
2017,06,24,00,13,13.40
2017,06,24,00,14,13.30
2017,06,24,00,15,13.30
2017,06,24,00,16,13.20
2017,06,24,00,17,13.20
2017,06,24,00,18,13.20
2017,06,24,00,19,13.10
2017,06,24,00,20,13.10
2017,06,24,00,21,13.10
2017,06,24,00,22,13.10
2017,06,24,00,23,13.10
2017,06,24,00,24,13.10
2017,06,24,00,25,13.10
2017,06,24,00,26,13.00
2017,06,24,00,27,13.00
2017,06,24,00,28,13.00
2017,06,24,00,29,12.90
2017,06,24,00,30,12.90
2017,06,24,00,31,12.90
2017,06,24,00,32,12.90
2017,06,24,00,33,12.90
2017,06,24,00,34,12.90
2017,06,24,00,35,12.90
2017,06,24,00,36,12.90
2017,06,24,00,37,12.80
2017,06,24,00,38,12.80
2017,06,24,00,39,12.80
2017,06,24,00,40,12.80
2017,06,24,00,41,12.90
2017,06,24,00,42,12.90
2017,06,24,00,43,12.90
2017,06,24,00,44,12.90
2017,06,24,00,45,12.90
2017,06,24,00,46,12.90
2017,06,24,00,47,12.90
2017,06,24,00,48,12.90
2017,06,24,00,49,12.90
2017,06,24,00,50,13.00
2017,06,24,00,51,13.00
2017,06,24,00,52,13.10
2017,06,24,00,53,13.20
2017,06,24,00,54,13.20
2017,06,24,00,55,13.20
2017,06,24,00,56,13.20
2017,06,24,00,57,13.20
2017,06,24,00,58,13.20
2017,06,24,00,59,13.20
2017,06,24,01,00,13.20
2017,06,24,01,01,13.10
2017,06,24,01,02,13.10
2017,06,24,01,03,13.10
2017,06,24,01,04,13.10
2017,06,24,01,05,13.10
2017,06,24,01,06,13.10
2017,06,24,01,07,13.10
2017,06,24,01,08,13.10
2017,06,24,01,09,13.10
2017,06,24,01,10,13.00
2017,06,24,01,11,13.00
2017,06,24,01,12,13.00
2017,06,24,01,13,13.00
2017,06,24,01,14,13.00
2017,06,24,01,15,13.00
2017,06,24,01,16,13.00
2017,06,24,01,17,13.00
2017,06,24,01,18,13.00
2017,06,24,01,19,13.00
2017,06,24,01,20,12.90
2017,06,24,01,21,12.90
2017,06,24,01,22,12.90
2017,06,24,01,23,12.80
2017,06,24,01,24,12.80
2017,06,24,01,25,12.80
2017,06,24,01,26,12.70
2017,06,24,01,27,12.70
2017,06,24,01,28,12.70
2017,06,24,01,29,12.60
2017,06,24,01,30,12.60
2017,06,24,01,31,12.60
2017,06,24,01,32,12.60
2017,06,24,01,33,12.50
2017,06,24,01,34,12.50
2017,06,24,01,35,12.40
2017,06,24,01,36,12.40
2017,06,24,01,37,12.40
2017,06,24,01,38,12.40
2017,06,24,01,39,12.40
2017,06,24,01,40,12.40
2017,06,24,01,41,12.40
2017,06,24,01,42,12.40
2017,06,24,01,43,12.40
2017,06,24,01,44,12.40
2017,06,24,01,45,12.40
2017,06,24,01,46,12.40
2017,06,24,01,47,12.40
2017,06,24,01,48,12.40
2017,06,24,01,49,12.40
2017,06,24,01,50,12.40
2017,06,24,01,51,12.40
2017,06,24,01,52,12.40
2017,06,24,01,53,12.40
2017,06,24,01,54,12.40
2017,06,24,01,55,12.40
2017,06,24,01,56,12.30
2017,06,24,01,57,12.30
2017,06,24,01,58,12.30
2017,06,24,01,59,12.20
2017,06,24,02,00,12.20
2017,06,24,02,01,12.20
2017,06,24,02,02,12.10
2017,06,24,02,03,12.10
2017,06,24,02,04,12.10
2017,06,24,02,05,12.00
2017,06,24,02,06,12.00
2017,06,24,02,07,12.00
2017,06,24,02,08,11.90
2017,06,24,02,09,11.90
2017,06,24,02,10,11.90
2017,06,24,02,11,11.90
2017,06,24,02,12,11.90
2017,06,24,02,13,11.90
2017,06,24,02,14,12.00
2017,06,24,02,15,12.00
2017,06,24,02,16,12.10
2017,06,24,02,17,12.20
2017,06,24,02,18,12.20
2017,06,24,02,19,12.20
2017,06,24,02,20,12.20
2017,06,24,02,21,12.20
2017,06,24,02,22,12.20
2017,06,24,02,23,12.20
2017,06,24,02,24,12.20
2017,06,24,02,25,12.10
2017,06,24,02,26,12.10
2017,06,24,02,27,12.10
2017,06,24,02,28,12.00
2017,06,24,02,29,12.00
2017,06,24,02,30,12.00
2017,06,24,02,31,12.00
2017,06,24,02,32,11.90
2017,06,24,02,33,11.90
2017,06,24,02,34,11.90
2017,06,24,02,35,11.90
2017,06,24,02,36,11.80
2017,06,24,02,37,11.80
2017,06,24,02,38,11.80
2017,06,24,02,39,11.80
2017,06,24,02,40,11.70
2017,06,24,02,41,11.70
2017,06,24,02,42,11.60
2017,06,24,02,43,11.60
2017,06,24,02,44,11.50
2017,06,24,02,45,11.40
2017,06,24,02,46,11.40
2017,06,24,02,47,11.40
2017,06,24,02,48,11.40
2017,06,24,02,49,11.30
2017,06,24,02,50,11.30
2017,06,24,02,51,11.30
2017,06,24,02,52,11.30
2017,06,24,02,53,11.30
2017,06,24,02,54,11.20
2017,06,24,02,55,11.20
2017,06,24,02,56,11.30
2017,06,24,02,57,11.30
2017,06,24,02,58,11.30
2017,06,24,02,59,11.30
2017,06,24,03,00,11.30
2017,06,24,03,01,11.30
2017,06,24,03,02,11.30
2017,06,24,03,03,11.30
2017,06,24,03,04,11.30
2017,06,24,03,05,11.40
2017,06,24,03,06,11.40
2017,06,24,03,07,11.40
2017,06,24,03,08,11.40
2017,06,24,03,09,11.40
2017,06,24,03,10,11.40
2017,06,24,03,11,11.40
2017,06,24,03,12,11.40
2017,06,24,03,13,11.40
2017,06,24,03,14,11.40
2017,06,24,03,15,11.40
2017,06,24,03,16,11.30
2017,06,24,03,17,11.30
2017,06,24,03,18,11.30
2017,06,24,03,19,11.20
2017,06,24,03,20,11.20
2017,06,24,03,21,11.20
2017,06,24,03,22,11.20
2017,06,24,03,23,11.20
2017,06,24,03,24,11.20
2017,06,24,03,25,11.20
2017,06,24,03,26,11.20
2017,06,24,03,27,11.20
2017,06,24,03,28,11.20
2017,06,24,03,29,11.10
2017,06,24,03,30,11.10
2017,06,24,03,31,11.10
2017,06,24,03,32,11.10
2017,06,24,03,33,11.10
2017,06,24,03,34,11.00
2017,06,24,03,35,11.00
2017,06,24,03,36,10.90
2017,06,24,03,37,10.90
2017,06,24,03,38,10.80
2017,06,24,03,39,10.80
2017,06,24,03,40,10.80
2017,06,24,03,41,10.70
2017,06,24,03,42,10.70
2017,06,24,03,43,10.60
2017,06,24,03,44,10.60
2017,06,24,03,45,10.50
2017,06,24,03,46,10.50
2017,06,24,03,47,10.40
2017,06,24,03,48,10.40
2017,06,24,03,49,10.40
2017,06,24,03,50,10.30
2017,06,24,03,51,10.30
2017,06,24,03,52,10.30
2017,06,24,03,53,10.30
2017,06,24,03,54,10.30
2017,06,24,03,55,10.30
2017,06,24,03,56,10.30
2017,06,24,03,57,10.30
2017,06,24,03,58,10.30
2017,06,24,03,59,10.30
2017,06,24,04,00,10.30
2017,06,24,04,01,10.30
2017,06,24,04,02,10.30
2017,06,24,04,03,10.30
2017,06,24,04,04,10.30
2017,06,24,04,05,10.30
2017,06,24,04,06,10.30
2017,06,24,04,07,10.40
2017,06,24,04,08,10.40
2017,06,24,04,09,10.40
2017,06,24,04,10,10.40
2017,06,24,04,11,10.40
2017,06,24,04,12,10.40
2017,06,24,04,13,10.40
2017,06,24,04,14,10.40
2017,06,24,04,15,10.40
2017,06,24,04,16,10.50
2017,06,24,04,17,10.50
2017,06,24,04,18,10.50
2017,06,24,04,19,10.50
2017,06,24,04,20,10.50
2017,06,24,04,21,10.50
2017,06,24,04,22,10.50
2017,06,24,04,23,10.50
2017,06,24,04,24,10.40
2017,06,24,04,25,10.40
2017,06,24,04,26,10.40
2017,06,24,04,27,10.40
2017,06,24,04,28,10.40
2017,06,24,04,29,10.30
2017,06,24,04,30,10.30
2017,06,24,04,31,10.30
2017,06,24,04,32,10.30
2017,06,24,04,33,10.30
2017,06,24,04,34,10.30
2017,06,24,04,35,10.30
2017,06,24,04,36,10.30
2017,06,24,04,37,10.40
2017,06,24,04,38,10.30
2017,06,24,04,39,10.40
2017,06,24,04,40,10.40
2017,06,24,04,41,10.40
2017,06,24,04,42,10.50
2017,06,24,04,43,10.60
2017,06,24,04,44,10.60
2017,06,24,04,45,10.60
2017,06,24,04,46,10.60
2017,06,24,04,47,10.60
2017,06,24,04,48,10.70
2017,06,24,04,49,10.70
2017,06,24,04,50,10.70
2017,06,24,04,51,10.70
2017,06,24,04,52,10.70
2017,06,24,04,53,10.70
2017,06,24,04,54,10.70
2017,06,24,04,55,10.60
2017,06,24,04,56,10.60
2017,06,24,04,57,10.60
2017,06,24,04,58,10.60
2017,06,24,04,59,10.70
2017,06,24,05,00,10.70
2017,06,24,05,01,10.70
2017,06,24,05,02,10.80
2017,06,24,05,03,10.80
2017,06,24,05,04,10.80
2017,06,24,05,05,10.80
2017,06,24,05,06,10.80
2017,06,24,05,07,10.80
2017,06,24,05,08,10.80
2017,06,24,05,09,10.80
2017,06,24,05,10,10.80
2017,06,24,05,11,10.70
2017,06,24,05,12,10.70
2017,06,24,05,13,10.70
2017,06,24,05,14,10.80
2017,06,24,05,15,10.80
2017,06,24,05,16,10.90
2017,06,24,05,17,10.90
2017,06,24,05,18,10.90
2017,06,24,05,19,10.90
2017,06,24,05,20,10.90
2017,06,24,05,21,10.80
2017,06,24,05,22,10.80
2017,06,24,05,23,10.80
2017,06,24,05,24,10.80
2017,06,24,05,25,10.70
2017,06,24,05,26,10.70
2017,06,24,05,27,10.60
2017,06,24,05,28,10.60
2017,06,24,05,29,10.60
2017,06,24,05,30,10.60
2017,06,24,05,31,10.60
2017,06,24,05,32,10.60
2017,06,24,05,33,10.60
2017,06,24,05,34,10.60
2017,06,24,05,35,10.60
2017,06,24,05,36,10.60
2017,06,24,05,37,10.60
2017,06,24,05,38,10.50
2017,06,24,05,39,10.50
2017,06,24,05,40,10.40
2017,06,24,05,41,10.40
2017,06,24,05,42,10.40
2017,06,24,05,43,10.40
2017,06,24,05,44,10.40
2017,06,24,05,45,10.40
2017,06,24,05,46,10.50
2017,06,24,05,47,10.50
2017,06,24,05,48,10.50
2017,06,24,05,49,10.60
2017,06,24,05,50,10.60
2017,06,24,05,51,10.60
2017,06,24,05,52,10.60
2017,06,24,05,53,10.60
2017,06,24,05,54,10.60
2017,06,24,05,55,10.60
2017,06,24,05,56,10.60
2017,06,24,05,57,10.60
2017,06,24,05,58,10.70
2017,06,24,05,59,10.70
2017,06,24,06,00,10.70
2017,06,24,06,01,10.70
2017,06,24,06,02,10.70
2017,06,24,06,03,10.70
2017,06,24,06,04,10.70
2017,06,24,06,05,10.70
2017,06,24,06,06,10.70
2017,06,24,06,07,10.80
2017,06,24,06,08,10.70
2017,06,24,06,09,10.70
2017,06,24,06,10,10.70
2017,06,24,06,11,10.70
2017,06,24,06,12,10.80
2017,06,24,06,13,10.80
2017,06,24,06,14,10.80
2017,06,24,06,15,10.80
2017,06,24,06,16,10.80
2017,06,24,06,17,10.80
2017,06,24,06,18,10.80
2017,06,24,06,19,10.80
2017,06,24,06,20,10.80
2017,06,24,06,21,10.80
2017,06,24,06,22,10.80
2017,06,24,06,23,10.90
2017,06,24,06,24,10.90
2017,06,24,06,25,10.90
2017,06,24,06,26,11.00
2017,06,24,06,27,11.00
2017,06,24,06,28,11.10
2017,06,24,06,29,11.10
2017,06,24,06,30,11.20
2017,06,24,06,31,11.30
2017,06,24,06,32,11.50
2017,06,24,06,33,11.60
2017,06,24,06,34,11.70
2017,06,24,06,35,11.80
2017,06,24,06,36,11.90
2017,06,24,06,37,11.90
2017,06,24,06,38,12.00
2017,06,24,06,39,12.00
2017,06,24,06,40,12.10
2017,06,24,06,41,12.20
2017,06,24,06,42,12.20
2017,06,24,06,43,12.20
2017,06,24,06,44,12.30
2017,06,24,06,45,12.30
2017,06,24,06,46,12.40
2017,06,24,06,47,12.50
2017,06,24,06,48,12.60
2017,06,24,06,49,12.60
2017,06,24,06,50,12.70
2017,06,24,06,51,12.70
2017,06,24,06,52,12.80
2017,06,24,06,53,12.80
2017,06,24,06,54,12.90
2017,06,24,06,55,12.90
2017,06,24,06,56,13.00
2017,06,24,06,57,13.00
2017,06,24,06,58,13.10
2017,06,24,06,59,13.20
2017,06,24,07,00,13.20
2017,06,24,07,01,13.20
2017,06,24,07,02,13.20
2017,06,24,07,03,13.20
2017,06,24,07,04,13.20
2017,06,24,07,05,13.20
2017,06,24,07,06,13.20
2017,06,24,07,07,13.20
2017,06,24,07,08,13.30
2017,06,24,07,09,13.30
2017,06,24,07,10,13.40
2017,06,24,07,11,13.40
2017,06,24,07,12,13.40
2017,06,24,07,13,13.50
2017,06,24,07,14,13.60
2017,06,24,07,15,13.60
2017,06,24,07,16,13.60
2017,06,24,07,17,13.70
2017,06,24,07,18,13.70
2017,06,24,07,19,13.70
2017,06,24,07,20,13.80
2017,06,24,07,21,13.80
2017,06,24,07,22,13.90
2017,06,24,07,23,13.90
2017,06,24,07,24,14.00
2017,06,24,07,25,14.00
2017,06,24,07,26,14.10
2017,06,24,07,27,14.10
2017,06,24,07,28,14.20
2017,06,24,07,29,14.20
2017,06,24,07,30,14.30
2017,06,24,07,31,14.30
2017,06,24,07,32,14.30
2017,06,24,07,33,14.40
2017,06,24,07,34,14.50
2017,06,24,07,35,14.50
2017,06,24,07,36,14.60
2017,06,24,07,37,14.70
2017,06,24,07,38,14.80
2017,06,24,07,39,14.90
2017,06,24,07,40,15.00
2017,06,24,07,41,15.00
2017,06,24,07,42,15.10
2017,06,24,07,43,15.20
2017,06,24,07,44,15.30
2017,06,24,07,45,15.40
2017,06,24,07,46,15.50
2017,06,24,07,47,15.60
2017,06,24,07,48,15.70
2017,06,24,07,49,15.80
2017,06,24,07,50,15.90
2017,06,24,07,51,15.90
2017,06,24,07,52,16.00
2017,06,24,07,53,16.10
2017,06,24,07,54,16.20
2017,06,24,07,55,16.30
2017,06,24,07,56,16.30
2017,06,24,07,57,16.40
2017,06,24,07,58,16.50
2017,06,24,07,59,16.60
2017,06,24,08,00,16.70
2017,06,24,08,01,16.80
2017,06,24,08,02,16.90
2017,06,24,08,03,17.00
2017,06,24,08,04,17.10
2017,06,24,08,05,17.20
2017,06,24,08,06,17.20
2017,06,24,08,07,17.30
2017,06,24,08,08,17.30
2017,06,24,08,09,17.40
2017,06,24,08,10,17.50
2017,06,24,08,11,17.50
2017,06,24,08,12,17.60
2017,06,24,08,13,17.70
2017,06,24,08,14,17.80
2017,06,24,08,15,17.80
2017,06,24,08,16,17.90
2017,06,24,08,17,18.00
2017,06,24,08,18,18.00
2017,06,24,08,19,18.00
2017,06,24,08,20,18.10
2017,06,24,08,21,18.10
2017,06,24,08,22,18.10
2017,06,24,08,23,18.20
2017,06,24,08,24,18.20
2017,06,24,08,25,18.30
2017,06,24,08,26,18.30
2017,06,24,08,27,18.30
2017,06,24,08,28,18.30
2017,06,24,08,29,18.30
2017,06,24,08,30,18.30
2017,06,24,08,31,18.30
2017,06,24,08,32,18.30
2017,06,24,08,33,18.40
2017,06,24,08,34,18.40
2017,06,24,08,35,18.50
2017,06,24,08,36,18.50
2017,06,24,08,37,18.60
2017,06,24,08,38,18.70
2017,06,24,08,39,18.80
2017,06,24,08,40,18.80
2017,06,24,08,41,19.00
2017,06,24,08,42,19.10
2017,06,24,08,43,19.20
2017,06,24,08,44,19.20
2017,06,24,08,45,19.40
2017,06,24,08,46,19.50
2017,06,24,08,47,19.60
2017,06,24,08,48,19.70
2017,06,24,08,49,19.80
2017,06,24,08,50,20.00
2017,06,24,08,51,20.10
2017,06,24,08,52,20.20
2017,06,24,08,53,20.20
2017,06,24,08,54,20.30
2017,06,24,08,55,20.40
2017,06,24,08,56,20.40
2017,06,24,08,57,20.50
2017,06,24,08,58,20.60
2017,06,24,08,59,20.60
2017,06,24,09,00,20.60
2017,06,24,09,01,20.70
2017,06,24,09,02,20.70
2017,06,24,09,03,20.70
2017,06,24,09,04,20.80
2017,06,24,09,05,20.80
2017,06,24,09,06,20.90
2017,06,24,09,07,21.00
2017,06,24,09,08,21.00
2017,06,24,09,09,21.20
2017,06,24,09,10,21.20
2017,06,24,09,11,21.20
2017,06,24,09,12,21.30
2017,06,24,09,13,21.40
2017,06,24,09,14,21.50
2017,06,24,09,15,21.60
2017,06,24,09,16,21.70
2017,06,24,09,17,21.70
2017,06,24,09,18,21.70
2017,06,24,09,19,21.80
2017,06,24,09,20,21.80
2017,06,24,09,21,21.80
2017,06,24,09,22,21.80
2017,06,24,09,23,21.80
2017,06,24,09,24,21.80
2017,06,24,09,25,21.80
2017,06,24,09,26,21.80
2017,06,24,09,27,21.80
2017,06,24,09,28,21.80
2017,06,24,09,29,21.70
2017,06,24,09,30,21.70
2017,06,24,09,31,21.60
2017,06,24,09,32,21.40
2017,06,24,09,33,21.30
2017,06,24,09,34,21.20
2017,06,24,09,35,21.10
2017,06,24,09,36,21.00
2017,06,24,09,37,20.90
2017,06,24,09,38,20.90
2017,06,24,09,39,20.80
2017,06,24,09,40,20.80
2017,06,24,09,41,20.70
2017,06,24,09,42,20.70
2017,06,24,09,43,20.70
2017,06,24,09,44,20.80
2017,06,24,09,45,20.80
2017,06,24,09,46,20.80
2017,06,24,09,47,20.80
2017,06,24,09,48,20.80
2017,06,24,09,49,20.80
2017,06,24,09,50,20.80
2017,06,24,09,51,20.80
2017,06,24,09,52,20.80
2017,06,24,09,53,20.90
2017,06,24,09,54,21.00
2017,06,24,09,55,21.10
2017,06,24,09,56,21.30
2017,06,24,09,57,21.40
2017,06,24,09,58,21.60
2017,06,24,09,59,21.70
2017,06,24,10,00,21.90
2017,06,24,10,01,22.00
2017,06,24,10,02,22.10
2017,06,24,10,03,22.20
2017,06,24,10,04,22.30
2017,06,24,10,05,22.40
2017,06,24,10,06,22.40
2017,06,24,10,07,22.40
2017,06,24,10,08,22.30
2017,06,24,10,09,22.40
2017,06,24,10,10,22.40
2017,06,24,10,11,22.40
2017,06,24,10,12,22.50
2017,06,24,10,13,22.50
2017,06,24,10,14,22.60
2017,06,24,10,15,22.70
2017,06,24,10,16,22.70
2017,06,24,10,17,22.80
2017,06,24,10,18,22.90
2017,06,24,10,19,23.00
2017,06,24,10,20,23.10
2017,06,24,10,21,23.20
2017,06,24,10,22,23.20
2017,06,24,10,23,23.30
2017,06,24,10,24,23.40
2017,06,24,10,25,23.50
2017,06,24,10,26,23.60
2017,06,24,10,27,23.70
2017,06,24,10,28,23.80
2017,06,24,10,29,23.90
2017,06,24,10,30,24.10
2017,06,24,10,31,24.20
2017,06,24,10,32,24.30
2017,06,24,10,33,24.40
2017,06,24,10,34,24.40
2017,06,24,10,35,24.40
2017,06,24,10,36,24.40
2017,06,24,10,37,24.40
2017,06,24,10,38,24.50
2017,06,24,10,39,24.60
2017,06,24,10,40,24.60
2017,06,24,10,41,24.70
2017,06,24,10,42,24.70
2017,06,24,10,43,24.70
2017,06,24,10,44,24.80
2017,06,24,10,45,24.90
2017,06,24,10,46,25.00
2017,06,24,10,47,25.10
2017,06,24,10,48,25.20
2017,06,24,10,49,25.30
2017,06,24,10,50,25.40
2017,06,24,10,51,25.50
2017,06,24,10,52,25.60
2017,06,24,10,53,25.70
2017,06,24,10,54,25.80
2017,06,24,10,55,26.00
2017,06,24,10,56,26.10
2017,06,24,10,57,26.20
2017,06,24,10,58,26.30
2017,06,24,10,59,26.30
2017,06,24,11,00,26.30
2017,06,24,11,01,26.10
2017,06,24,11,02,26.00
2017,06,24,11,03,25.90
2017,06,24,11,04,25.90
2017,06,24,11,05,25.90
2017,06,24,11,06,25.90
2017,06,24,11,07,25.90
2017,06,24,11,08,25.90
2017,06,24,11,09,25.80
2017,06,24,11,10,25.70
2017,06,24,11,11,25.70
2017,06,24,11,12,25.60
2017,06,24,11,13,25.60
2017,06,24,11,14,25.60
2017,06,24,11,15,25.60
2017,06,24,11,16,25.60
2017,06,24,11,17,25.50
2017,06,24,11,18,25.40
2017,06,24,11,19,25.40
2017,06,24,11,20,25.40
2017,06,24,11,21,25.30
2017,06,24,11,22,25.20
2017,06,24,11,23,25.10
2017,06,24,11,24,25.10
2017,06,24,11,25,25.00
2017,06,24,11,26,24.80
2017,06,24,11,27,24.70
2017,06,24,11,28,24.60
2017,06,24,11,29,24.50
2017,06,24,11,30,24.40
2017,06,24,11,31,24.40
2017,06,24,11,32,24.40
2017,06,24,11,33,24.40
2017,06,24,11,34,24.40
2017,06,24,11,35,24.50
2017,06,24,11,36,24.50
2017,06,24,11,37,24.60
2017,06,24,11,38,24.60
2017,06,24,11,39,24.60
2017,06,24,11,40,24.70
2017,06,24,11,41,24.70
2017,06,24,11,42,24.80
2017,06,24,11,43,24.80
2017,06,24,11,44,24.90
2017,06,24,11,45,24.90
2017,06,24,11,46,24.90
2017,06,24,11,47,24.90
2017,06,24,11,48,24.90
2017,06,24,11,49,24.90
2017,06,24,11,50,24.90
2017,06,24,11,51,24.80
2017,06,24,11,52,24.80
2017,06,24,11,53,24.70
2017,06,24,11,54,24.60
2017,06,24,11,55,24.40
2017,06,24,11,56,24.30
2017,06,24,11,57,24.20
2017,06,24,11,58,24.20
2017,06,24,11,59,24.20
2017,06,24,12,00,24.20
2017,06,24,12,01,24.20
2017,06,24,12,02,24.20
2017,06,24,12,03,24.30
2017,06,24,12,04,24.30
2017,06,24,12,05,24.40
2017,06,24,12,06,24.50
2017,06,24,12,07,24.60
2017,06,24,12,08,24.60
2017,06,24,12,09,24.60
2017,06,24,12,10,24.60
2017,06,24,12,11,24.60
2017,06,24,12,12,24.60
2017,06,24,12,13,24.60
2017,06,24,12,14,24.60
2017,06,24,12,15,24.60
2017,06,24,12,16,24.60
2017,06,24,12,17,24.70
2017,06,24,12,18,24.70
2017,06,24,12,19,24.70
2017,06,24,12,20,24.70
2017,06,24,12,21,24.70
2017,06,24,12,22,24.80
2017,06,24,12,23,24.80
2017,06,24,12,24,24.90
2017,06,24,12,25,24.90
2017,06,24,12,26,24.90
2017,06,24,12,27,25.00
2017,06,24,12,28,25.00
2017,06,24,12,29,25.10
2017,06,24,12,30,25.20
2017,06,24,12,31,25.20
2017,06,24,12,32,25.30
2017,06,24,12,33,25.30
2017,06,24,12,34,25.30
2017,06,24,12,35,25.30
2017,06,24,12,36,25.30
2017,06,24,12,37,25.20
2017,06,24,12,38,25.20
2017,06,24,12,39,25.20
2017,06,24,12,40,25.10
2017,06,24,12,41,25.10
2017,06,24,12,42,25.20
2017,06,24,12,43,25.20
2017,06,24,12,44,25.30
2017,06,24,12,45,25.30
2017,06,24,12,46,25.30
2017,06,24,12,47,25.30
2017,06,24,12,48,25.30
2017,06,24,12,49,25.30
2017,06,24,12,50,25.20
2017,06,24,12,51,25.20
2017,06,24,12,52,25.20
2017,06,24,12,53,25.20
2017,06,24,12,54,25.20
2017,06,24,12,55,25.10
2017,06,24,12,56,25.10
2017,06,24,12,57,25.20
2017,06,24,12,58,25.10
2017,06,24,12,59,25.20
2017,06,24,13,00,25.10
2017,06,24,13,01,25.10
2017,06,24,13,02,25.10
2017,06,24,13,03,25.20
2017,06,24,13,04,25.20
2017,06,24,13,05,25.20
2017,06,24,13,06,25.30
2017,06,24,13,07,25.30
2017,06,24,13,08,25.40
2017,06,24,13,09,25.40
2017,06,24,13,10,25.30
2017,06,24,13,11,25.30
2017,06,24,13,12,25.30
2017,06,24,13,13,25.40
2017,06,24,13,14,25.40
2017,06,24,13,15,25.40
2017,06,24,13,16,25.40
2017,06,24,13,17,25.40
2017,06,24,13,18,25.50
2017,06,24,13,19,25.60
2017,06,24,13,20,25.70
2017,06,24,13,21,25.80
2017,06,24,13,22,25.90
2017,06,24,13,23,26.00
2017,06,24,13,24,26.00
2017,06,24,13,25,26.20
2017,06,24,13,26,26.30
2017,06,24,13,27,26.40
2017,06,24,13,28,26.40
2017,06,24,13,29,26.50
2017,06,24,13,30,26.60
2017,06,24,13,31,26.60
2017,06,24,13,32,26.70
2017,06,24,13,33,26.80
2017,06,24,13,34,26.90
2017,06,24,13,35,27.00
2017,06,24,13,36,27.10
2017,06,24,13,37,27.20
2017,06,24,13,38,27.30
2017,06,24,13,39,27.30
2017,06,24,13,40,27.40
2017,06,24,13,41,27.50
2017,06,24,13,42,27.60
2017,06,24,13,43,27.60
2017,06,24,13,44,27.50
2017,06,24,13,45,27.50
2017,06,24,13,46,27.40
2017,06,24,13,47,27.50
2017,06,24,13,48,27.50
2017,06,24,13,49,27.60
2017,06,24,13,50,27.60
2017,06,24,13,51,27.70
2017,06,24,13,52,27.80
2017,06,24,13,53,27.80
2017,06,24,13,54,27.80
2017,06,24,13,55,27.70
2017,06,24,13,56,27.60
2017,06,24,13,57,27.60
2017,06,24,13,58,27.60
2017,06,24,13,59,27.60
2017,06,24,14,00,27.50
2017,06,24,14,01,27.50
2017,06,24,14,02,27.40
2017,06,24,14,03,27.40
2017,06,24,14,04,27.40
2017,06,24,14,05,27.40
2017,06,24,14,06,27.40
2017,06,24,14,07,27.40
2017,06,24,14,08,27.40
2017,06,24,14,09,27.30
2017,06,24,14,10,27.40
2017,06,24,14,11,27.40
2017,06,24,14,12,27.40
2017,06,24,14,13,27.50
2017,06,24,14,14,27.50
2017,06,24,14,15,27.70
2017,06,24,14,16,27.80
2017,06,24,14,17,27.80
2017,06,24,14,18,27.70
2017,06,24,14,19,27.70
2017,06,24,14,20,27.60
2017,06,24,14,21,27.70
2017,06,24,14,22,27.80
2017,06,24,14,23,27.90
2017,06,24,14,24,28.00
2017,06,24,14,25,28.10
2017,06,24,14,26,28.10
2017,06,24,14,27,28.00
2017,06,24,14,28,28.00
2017,06,24,14,29,28.00
2017,06,24,14,30,28.00
2017,06,24,14,31,28.00
2017,06,24,14,32,27.90
2017,06,24,14,33,28.00
2017,06,24,14,34,28.10
2017,06,24,14,35,28.30
2017,06,24,14,36,28.30
2017,06,24,14,37,28.40
2017,06,24,14,38,28.40
2017,06,24,14,39,28.30
2017,06,24,14,40,28.30
2017,06,24,14,41,28.20
2017,06,24,14,42,28.30
2017,06,24,14,43,28.40
2017,06,24,14,44,28.50
2017,06,24,14,45,28.50
2017,06,24,14,46,28.60
2017,06,24,14,47,28.50
2017,06,24,14,48,28.50
2017,06,24,14,49,28.60
2017,06,24,14,50,28.60
2017,06,24,14,51,28.50
2017,06,24,14,52,28.50
2017,06,24,14,53,28.40
2017,06,24,14,54,28.40
2017,06,24,14,55,28.50
2017,06,24,14,56,28.60
2017,06,24,14,57,28.60
2017,06,24,14,58,28.70
2017,06,24,14,59,28.70
2017,06,24,15,00,28.70
2017,06,24,15,01,28.60
2017,06,24,15,02,28.50
2017,06,24,15,03,28.40
2017,06,24,15,04,28.30
2017,06,24,15,05,28.20
2017,06,24,15,06,28.10
2017,06,24,15,07,28.10
2017,06,24,15,08,28.00
2017,06,24,15,09,28.10
2017,06,24,15,10,28.10
2017,06,24,15,11,28.10
2017,06,24,15,12,28.20
2017,06,24,15,13,28.30
2017,06,24,15,14,28.30
2017,06,24,15,15,28.40
2017,06,24,15,16,28.40
2017,06,24,15,17,28.20
2017,06,24,15,18,28.10
2017,06,24,15,19,28.00
2017,06,24,15,20,27.90
2017,06,24,15,21,27.90
2017,06,24,15,22,28.00
2017,06,24,15,23,28.00
2017,06,24,15,24,28.10
2017,06,24,15,25,28.10
2017,06,24,15,26,28.10
2017,06,24,15,27,28.00
2017,06,24,15,28,27.90
2017,06,24,15,29,27.80
2017,06,24,15,30,27.70
2017,06,24,15,31,27.60
2017,06,24,15,32,27.40
2017,06,24,15,33,27.30
2017,06,24,15,34,27.20
2017,06,24,15,35,27.10
2017,06,24,15,36,27.00
2017,06,24,15,37,27.00
2017,06,24,15,38,26.90
2017,06,24,15,39,26.80
2017,06,24,15,40,26.80
2017,06,24,15,41,26.70
2017,06,24,15,42,26.60
2017,06,24,15,43,26.50
2017,06,24,15,44,26.50
2017,06,24,15,45,26.40
2017,06,24,15,46,26.40
2017,06,24,15,47,26.40
2017,06,24,15,48,26.40
2017,06,24,15,49,26.50
2017,06,24,15,50,26.60
2017,06,24,15,51,26.60
2017,06,24,15,52,26.70
2017,06,24,15,53,26.70
2017,06,24,15,54,26.60
2017,06,24,15,55,26.40
2017,06,24,15,56,26.30
2017,06,24,15,57,26.30
2017,06,24,15,58,26.30
2017,06,24,15,59,26.40
2017,06,24,16,00,26.40
2017,06,24,16,01,26.50
2017,06,24,16,02,26.60
2017,06,24,16,03,26.70
2017,06,24,16,04,26.80
2017,06,24,16,05,26.80
2017,06,24,16,06,26.70
2017,06,24,16,07,26.70
2017,06,24,16,08,26.70
2017,06,24,16,09,26.70
2017,06,24,16,10,26.60
2017,06,24,16,11,26.60
2017,06,24,16,12,26.50
2017,06,24,16,13,26.30
2017,06,24,16,14,26.20
2017,06,24,16,15,26.10
2017,06,24,16,16,26.10
2017,06,24,16,17,26.00
2017,06,24,16,18,25.90
2017,06,24,16,19,25.90
2017,06,24,16,20,25.80
2017,06,24,16,21,25.80
2017,06,24,16,22,25.80
2017,06,24,16,23,25.80
2017,06,24,16,24,25.80
2017,06,24,16,25,25.90
2017,06,24,16,26,26.00
2017,06,24,16,27,26.00
2017,06,24,16,28,26.10
2017,06,24,16,29,26.20
2017,06,24,16,30,26.20
2017,06,24,16,31,26.30
2017,06,24,16,32,26.40
2017,06,24,16,33,26.50
2017,06,24,16,34,26.60
2017,06,24,16,35,26.70
2017,06,24,16,36,26.70
2017,06,24,16,37,26.80
2017,06,24,16,38,26.80
2017,06,24,16,39,26.90
2017,06,24,16,40,27.00
2017,06,24,16,41,27.00
2017,06,24,16,42,27.10
2017,06,24,16,43,27.10
2017,06,24,16,44,27.10
2017,06,24,16,45,27.10
2017,06,24,16,46,27.00
2017,06,24,16,47,26.90
2017,06,24,16,48,26.80
2017,06,24,16,49,26.70
2017,06,24,16,50,26.60
2017,06,24,16,51,26.50
2017,06,24,16,52,26.40
2017,06,24,16,53,26.40
2017,06,24,16,54,26.30
2017,06,24,16,55,26.30
2017,06,24,16,56,26.20
2017,06,24,16,57,26.20
2017,06,24,16,58,26.20
2017,06,24,16,59,26.20
2017,06,24,17,00,26.10
2017,06,24,17,01,25.90
2017,06,24,17,02,25.80
2017,06,24,17,03,25.70
2017,06,24,17,04,25.70
2017,06,24,17,05,25.60
2017,06,24,17,06,25.60
2017,06,24,17,07,25.60
2017,06,24,17,08,25.60
2017,06,24,17,09,25.60
2017,06,24,17,10,25.60
2017,06,24,17,11,25.70
2017,06,24,17,12,25.70
2017,06,24,17,13,25.60
2017,06,24,17,14,25.60
2017,06,24,17,15,25.50
2017,06,24,17,16,25.50
2017,06,24,17,17,25.50
2017,06,24,17,18,25.60
2017,06,24,17,19,25.60